Regional Weather Roundup
Issued by NWS Sterling, VA

Home | Current Version | Previous Version | Graphics & Text | Print | Product List | Glossary On
Versions: 1 2 3 4 5 6 7 8 9 10 11 12 13 14 15 16 17 18 19 20 21 22 23 24 25 26 27
000
ASUS41 KLWX 221511
RWRLWX

REGIONAL WEATHER ROUNDUP
NATIONAL WEATHER SERVICE BALTIMORE MD/WASHINGTON DC
1100 AM EDT MON MAY 22 2017

Note: "FAIR" indicates few or no clouds below 12,000 feet
with no significant weather and/or obstructions to visibility.
 TC=TEMPERATURE CELSIUS

 * =Non NWS site. Station does not report precipitation (e.g. rain,
    snow, etc.), thunder, or fog.

DCZ001-MDZ009-015-VAZ040>042-051-053>054-221600-
WASHINGTON METRO

CITY           SKY/WX    TMP DP  RH WIND       PRES   REMARKS
WASHINGTON NAT LGT RAIN  63  61  93 SE5       30.06F
DULLES         CLOUDY    61  58  90 S6        30.06F
ANDREWS AFB    CLOUDY    61  59  94 E6        30.04F
FT BELVOIR     LGT RAIN  61  59  92 CALM      30.06R
QUANTICO       LGT RAIN  63  62  97 S3        30.07S
COLLEGE PARK*  CLOUDY    60  59  95 CALM      30.04F
LEESBURG*      CLOUDY    63  63 100 S3        30.06F
MANASSAS*        N/A     62  60  93 S3        30.07F
GAITHERSBURG*  CLOUDY    61  59  93 CALM      30.06F

$$

MDZ006>007-011-014-221600-
BALTIMORE METRO

CITY           SKY/WX    TMP DP  RH WIND       PRES   REMARKS
BWI AIRPORT    LGT RAIN  61  61 100 E6        30.05F
MD SCIENCE CTR   N/A     62  61  96 MISG      30.06F
MARTIN STATE   LGT RAIN  61  61 100 CALM      30.09S
ANNAPOLIS      LGT RAIN  62  62 100 E3        30.06F FOG
FORT MEADE*    CLOUDY    61  59  94 SE5       30.08F

$$

MDZ012-015-019>023-221600-
MARYLAND EASTERN SHORE

CITY           SKY/WX    TMP DP  RH WIND       PRES   REMARKS
OCEAN CITY     CLOUDY    65  61  87 VRB6      30.07F
SALISBURY      HVY RAIN  68  67  96 S7        30.05F FOG
BAY BRIDGE AP* HVY RAIN  61  59  94 CALM      30.07F FOG
CAMBRIDGE*     CLOUDY    61  59  94 NW5       30.07S FOG
EASTON*        RAIN      61  59  94 CALM      30.10F

$$

MDZ017>025-221600-
SOUTHERN MARYLAND

CITY           SKY/WX    TMP DP  RH WIND       PRES   REMARKS
PATUXENT RIVER CLOUDY    62  62 100 N3        30.06F
ST INIGOES     CLOUDY    63  62  97 CALM      30.05F
LEONARDTOWN*   CLOUDY    61  59  94 E3        30.07F

$$

MDZ003>005-221600-
NORTH CENTRAL MARYLAND

CITY           SKY/WX    TMP DP  RH WIND       PRES   REMARKS
FREDERICK*     CLOUDY    63  63 100 CALM      30.09S
HAGERSTOWN APT CLOUDY    62  57  83 VRB3      30.04F
WESTMINSTER*   CLOUDY    61  61 100 SE3       30.05F

$$

MDZ501>502-221600-
WESTERN MARYLAND

CITY           SKY/WX    TMP DP  RH WIND       PRES   REMARKS
OAKLAND*       CLOUDY    57  57 100 W8        30.08S FOG
CUMBERLAND*    CLOUDY    66  59  77 SE5       30.06F

$$

VAZ025>031-221600-
SHENANDOAH VALLEY

CITY           SKY/WX    TMP DP  RH WIND       PRES   REMARKS
WINCHESTER*    CLOUDY    63  61  94 CALM      30.03F
FRONT ROYAL*   CLOUDY    68  63  83 CALM      30.02F
LURAY*         MOSUNNY   70  61  73 SW8       30.03F
NEW MARKET*    MOSUNNY   70  60  71 SW6       30.02F
STAUNTON*      PTSUNNY   68  62  80 S7        30.07S
WAYNESBORO*    CLOUDY    66  62  87 CALM      30.07S

$$

WVZ021-048>050-054>055-221600-
EASTERN WEST VIRGINIA PANHANDLE

CITY           SKY/WX    TMP DP  RH WIND       PRES   REMARKS
MARTINSBURG    CLOUDY    63  59  87 SE6       30.03F
PETERSBURG*    PTSUNNY   75  63  66 CALM      30.02F

$$

VAZ036>039-050-221600-
CENTRAL FOOTHILLS

CITY           SKY/WX    TMP DP  RH WIND       PRES   REMARKS
CHARLOTTESVILL CLOUDY    64  61  90 VRB3      30.06F
CULPEPER*      CLOUDY    63  62  94 S5        30.07F
ORANGE*        CLOUDY    61  59  94 CALM      30.06F
GORDONSVILLE*  CLOUDY    63  61  94 CALM      30.05F
WARRENTON*     CLOUDY    63  59  86 CALM      30.06S

$$

VAZ055>057-221600-
NORTH AND CENTRAL PIEDMONT

CITY           SKY/WX    TMP DP  RH WIND       PRES   REMARKS
FREDERICKSBRG* DRIZZLE   62  62 100 CALM      30.05F
STAFFORD*      CLOUDY    62  62 100 CALM      30.10S

$$

NCZ024-NYZ072-PAZ021-071-VAZ022-071-221600-
OTHER REGIONAL OBSERVATIONS

CITY           SKY/WX    TMP DP  RH WIND       PRES   REMARKS
NEW YORK CITY  LGT RAIN  55  54  96 VRB6      30.14F FOG
PHILADELPHIA   HVY RAIN  59  57  93 E3        30.08F FOG
PITTSBURGH     CLOUDY    61  54  77 SW10      30.04R
ROANOKE        CLOUDY    66  61  84 VRB3      30.09S
RICHMOND       CLOUDY    63  62  97 CALM      30.05F FOG
RALEIGH        CLOUDY    69  65  86 SW14      30.03R

$$

ANZ530>537-221600-
MARINE OBSERVATIONS

STATION/POSITION TIME  TEMP    WIND        PRES
                       AIR SEA DIR/SP/G
                 (UTC) (F)     (DEG/KT/KT) (MB)
THOMAS PT LIGHT  1500   60 66  100/  2/  2   N/A
BALT KEY BRIDGE  1448   60      90/  5/  5 1018.0F
COVE POINT       1448   61      30/  3/  4 1018.6F
LEWISETTA        1448   64 69   30/  2/  3 1017.5F
SOLOMONS ISLAND  1436   61 67   10/  2/  3   N/A
PINEY POINT      1448           CALM  /  1   N/A

$$





USA.gov is the U.S. government's official web portal to all federal, state and local government web resources and services.